Flag for Canada Weather past 2 weeks in Ottawa, Ontario, Canada

Now
14 °F

Clear.


Feels Like: 2 °F
Forecast: N/A
Wind: 9 mph from West

Location: Ottawa Int'L. Ont.

Current Time: Dec 19, 2014 at 6:48:01 PM

Latest Report: Dec 19, 2014 at 6:00 PM


Visibility: 15 mi

Pressure: 30.24 "Hg

Humidity: 79%

Dew point: 9 °F

Location of OttawaLocation

Historic Weather in Ottawa — Graph

°F

Ottawa temperature yesterday

Maximum temperature yesterday: 32 °F (at 12:00 AM)
Minimum temperature yesterday: 23 °F (at 11:00 PM)
Average temperature yesterday: 28 °F

Past Weeks' High & Low Weather Summary

 TemperatureHumidityPressure
High34 °F (Dec 14, 3:00 PM)100% (Dec 6, 4:00 AM)30.84 "Hg (Dec 6, 4:00 AM)
Low3 °F (Dec 5, 2:00 AM)41% (Dec 7, 2:00 PM)29.64 "Hg (Dec 11, 4:00 AM)
Average24 °F84%30.13 "Hg
* Reported Dec 4 5:00 PM — Dec 19 5:00 PM, Ottawa, Weather by CustomWeather, © 2014

Note: Actual official high and low records may vary slightly from our data, if they occured in-between our weather recording intervals... More about our weather records

Advertising

Ottawa weather history for previous 24 hours

 ConditionsComfort  
Time TempWeatherWind HumidityBarometerVisibility
5:00 PM
Dec 19
16 °FClear.8 mph79%30.22 "Hg15 mi
4:00 PM19 °FPassing clouds.9 mph73%30.19 "Hg15 mi
3:00 PM21 °FPassing clouds.7 mph68%30.17 "Hg15 mi
2:00 PM21 °FPassing clouds.9 mph68%30.16 "Hg15 mi
1:00 PM19 °FPassing clouds.6 mph73%30.16 "Hg15 mi
12:00 PM19 °FPassing clouds.7 mph73%30.16 "Hg15 mi
11:00 AM18 °FPassing clouds.8 mph73%30.16 "Hg15 mi
10:00 AM16 °FPassing clouds.13 mph79%30.16 "Hg15 mi
9:00 AM16 °FPartly sunny.13 mph79%30.15 "Hg15 mi
8:00 AM16 °FPartly sunny.9 mph79%30.12 "Hg15 mi
7:00 AM18 °FLight snow. Overcast.14 mph79%30.10 "Hg15 mi
6:00 AM19 °FSnow flurries. Passing clouds.14 mph79%30.07 "Hg8 mi
5:00 AM21 °FOvercast.13 mph80%30.06 "Hg15 mi
4:00 AM21 °FMostly cloudy.14 mph80%30.05 "Hg15 mi
3:00 AM21 °FOvercast.13 mph86%30.05 "Hg15 mi
2:00 AM21 °FOvercast.12 mph86%30.04 "Hg15 mi
1:00 AM21 °FOvercast.14 mph86%30.03 "Hg15 mi
12:00 AM23 °FOvercast.20 mph80%30.03 "Hg15 mi
11:48 PM
Dec 18
23 °FLight snow. Overcast.15 mph86%30.03 "Hg15 mi
11:00 PM23 °FOvercast.14 mph86%30.02 "Hg15 mi
10:00 PM25 °FMostly cloudy.13 mph86%30.02 "Hg15 mi
9:00 PM25 °FMostly cloudy.14 mph86%30.01 "Hg15 mi
8:00 PM25 °FLight snow. Overcast.15 mph86%30.01 "Hg15 mi
7:00 PM25 °FLight snow. Overcast.16 mph86%30.02 "Hg15 mi
6:00 PM25 °FOvercast.15 mph86%30.01 "Hg15 mi
Weather by CustomWeather, © 2014

See weather overviewHow to use our weather pages